Location: U-46 Planetarium
(42.0300°N, 88.2740°W)
Time: 07:10:34
(UTC-05:00)

Daily predictions for brighter satellites

Satellite Brightness Start Highest point End
(mag) Time Altitude Azimuth Time Altitude Azimuth Time Altitude Azimuth
SeaSat 1 3.3 20:04:38 10° NE 20:08:48 27° ESE 20:12:57 10° SSE
Cosmos 1602 3.9 20:07:30 10° S 20:11:13 49° E 20:14:56 10° NNE
Cosmos 1633 2.7 20:10:32 10° S 20:14:08 82° W 20:17:48 10° N
GENESIS II 4.2 20:11:02 10° NNW 20:14:58 73° NE 20:18:50 10° SE
Okean 1 Rocket 4.4 20:14:19 10° SE 20:17:30 20° E 20:20:43 10° NE
Cosmos 2263 Rocket 2.8 20:12:41 10° NNW 20:18:06 42° ENE 20:23:27 10° SE
Cosmos 1300 Rocket 4.3 20:14:34 10° SSE 20:18:19 30° E 20:22:05 10° NNE
Uosat 12 SS-18 rocket 4.5 20:15:05 10° SSW 20:19:46 64° ESE 20:25:34 10° NE
NOSS 2-3 (C) 4.1 20:17:33 10° SSW 20:22:00 47° ESE 20:27:06 10° NE
Cosmos 2322 Rocket 2.3 20:16:49 10° S 20:22:24 59° ESE 20:28:00 10° NNE
GPS 2-05 Rocket1 4.2 20:20:56 10° WSW 20:23:49 25° S 20:26:33 10° SE
Tiangong 1 0.7 20:21:30 10° W 20:24:17 80° SSW 20:26:47 12° ESE
Meteor 1-11 Rocket 3.9 20:18:43 10° S 20:24:22 54° E 20:29:56 10° NNE
Cosmos 1140 Rocket 3.6 20:19:21 10° NNW 20:24:36 85° WSW 20:29:51 10° SSE
YAOGAN 6 3.9 20:22:21 10° ESE 20:25:08 22° ENE 20:27:54 10° NNE
Cosmos 614 Rocket 4.0 20:20:33 10° NNW 20:25:42 85° ENE 20:30:51 10° SSE
S3M 4.1 20:19:32 10° N 20:25:47 67° E 20:32:06 10° SSE
Cosmos 1553 Rocket 3.9 20:20:50 10° N 20:26:59 74° E 20:33:03 10° SSE
Cosmos 2266 Rocket 4.3 20:25:51 10° SSE 20:31:27 42° E 20:37:06 10° NNE
Spot 2 Rocket 3.5 20:26:23 10° SSE 20:31:28 83° ENE 20:36:35 10° NNW
Resurs 01 Rocket 1.8 20:28:19 10° S 20:32:46 82° WSW 20:37:15 10° NNW
Abrixas rocket 4.1 20:30:42 10° WNW 20:33:30 25° N 20:36:19 10° ENE
SL-16 R/B 2.2 20:28:55 10° SSW 20:34:33 74° ESE 20:40:14 10° NNE
Cosmos 2151 Rocket 3.6 20:35:18 10° S 20:39:41 85° W 20:44:06 10° N
EXPRESS MD2 3.4 20:38:21 10° WSW 20:40:50 56° NNW 20:45:02 10° ENE
Helios 1A 3.7 20:41:23 14° SE 20:44:42 38° ENE 20:48:39 10° N
Cosmos 2322 4.5 20:41:18 10° SSE 20:46:05 29° ESE 20:50:56 10° NE
ATLAS 3B R/B 3.3 20:42:44 10° NNW 20:49:08 42° NE 20:53:56 17° ESE
ERS-1 Rocket 4.0 20:46:40 16° ESE 20:49:46 29° ENE 20:54:04 10° N
Meteor 1-29 4.1 20:50:39 10° NE 20:53:27 23° E 20:54:00 22° ESE
Cosmos 1536 Rocket 3.8 20:49:36 10° NNW 20:53:56 72° W 20:58:15 10° S
Cosmos 2360 Rocket 2.5 20:49:49 10° S 20:55:06 43° ESE 21:00:24 10° NE
Cosmos 1980 Rocket 4.4 20:51:45 10° WSW 20:56:31 28° NW 21:01:19 10° N
COSMOS 2428 3.9 20:55:48 18° ESE 20:57:11 20° E 21:01:12 10° NE
Cosmos 1939 Rocket 2.7 20:53:52 10° SSE 20:57:51 85° ENE 21:01:48 10° N
Cosmos 1536 2.8 20:54:44 10° S 20:58:48 86° ESE 21:02:54 10° N
Lacrosse 5 rocket 3.7 20:56:53 10° W 20:59:09 15° WSW 21:01:28 10° SSW
USA 267 4.4 20:53:11 10° SSE 20:59:10 38° SW 21:05:12 10° WNW
Cosmos 1741 Rocket 4.1 20:54:05 10° NNW 20:59:20 79° WSW 21:04:32 10° SSE
Envisat 3.3 20:55:43 10° S 21:00:46 68° WSW 21:05:51 10° NNW
NOSS 2-3 (D) 3.9 20:57:08 10° SW 21:01:48 83° NW 21:07:16 10° NE
Meteor 1-5 Rocket 4.0 21:03:25 10° S 21:08:44 75° E 21:14:02 10° NNE
H-2A R/B 3.4 21:08:23 19° E 21:09:59 22° ENE 21:13:43 10° NNE
SAR-Lupe-4 4.2 21:12:33 32° ESE 21:13:27 39° ENE 21:16:50 10° N
NOAA 11 4.3 21:12:03 22° SE 21:15:31 57° ENE 21:20:54 10° N
CZ-4B DEB 2.6 21:15:44 49° E 21:16:00 52° ENE 21:18:49 10° N
Meteor 2-4 Rocket 4.2 21:13:11 10° NNW 21:18:40 61° W 21:24:18 10° S
MetOp-A 4.3 21:24:43 29° SE 21:27:17 58° ENE 21:32:33 10° N
Cosmos 405 4.1 21:28:30 29° ENE 21:28:30 29° ENE 21:30:55 10° NNE
ATLAS 2AS CENTAUR R/B 3.1 21:20:29 10° SW 21:28:12 83° NW 21:36:24 10° NE
Delta 2 Rocket 4.2 21:25:01 10° SW 21:28:46 33° S 21:28:55 33° SSE
Cosmos 1110 Rocket 3.9 21:25:00 10° SSW 21:30:09 86° ESE 21:35:22 10° NNE
Helios 1B rocket 2.4 21:26:08 10° NNE 21:30:16 86° W 21:33:57 13° SSW
SAR-Lupe-1 4.2 21:29:54 49° E 21:30:17 52° ENE 21:33:47 10° N
BREEZE M DEB (TANK) 2.7 21:24:56 10° SW 21:32:54 53° SSE 21:33:38 44° ESE
SPOT 5 3.4 21:33:36 35° ESE 21:34:39 40° ENE 21:39:00 10° N
Cosmos 1455 Rocket 4.0 21:37:04 30° ENE 21:37:04 30° ENE 21:40:28 10° NNE
Lacrosse 5 2.3 21:34:05 10° WSW 21:39:07 63° NW 21:44:10 10° NE
Cosmos 1066 Rocket 4.4 21:34:30 10° N 21:39:47 49° ENE 21:41:16 39° ESE
Cosmos 1331 Rocket 4.0 21:38:01 10° SSW 21:43:12 82° WNW 21:48:28 10° NNE
SeaSat 1 3.7 21:41:47 10° NNE 21:46:25 42° WNW 21:51:01 10° SW
SL-8 R/B 3.7 21:42:11 10° WNW 21:46:59 73° NNE 21:48:14 48° E
Atlas Centaur 2 4.0 21:43:26 10° WSW 21:49:37 24° SSW 21:51:30 22° S
SL-08 RB Rocket 3.8 21:49:38 53° ESE 21:50:12 58° ENE 21:54:40 10° N
ARGOS 3.0 21:49:54 43° SSE 21:51:40 77° ENE 21:57:03 10° N
Cosmos 1244 Rocket 4.4 21:49:27 20° S 21:53:51 88° E 22:00:02 10° N
Cosmos 1743 4.5 21:56:17 21° NE 21:56:17 21° NE 21:57:53 10° NNE
Cosmos 1025 Rocket 4.0 21:54:17 10° NNW 21:58:19 43° W 22:00:09 27° SW
Tiangong 1 3.7 21:57:18 10° W 21:57:45 13° WSW 21:57:45 13° WSW
Okean 2 4.2 21:55:44 10° NNW 21:59:40 46° W 22:00:54 34° SW
Landsat 7 4.5 22:01:05 38° ENE 22:01:05 38° ENE 22:05:25 10° N
Cosmos 2263 Rocket 3.8 21:57:00 10° NW 22:01:48 29° WSW 22:05:41 14° SSW
Cosmos 2278 Rocket 3.3 22:00:59 10° N 22:05:53 29° NE 22:06:39 28° ENE
Cosmos 1844 Rocket 2.6 22:03:33 10° NNW 22:09:15 72° ENE 22:10:09 60° ESE
Abrixas rocket 3.8 22:07:34 10° NW 22:09:53 34° NNW 22:09:53 34° NNW
SPOT 1/Viking Rocket 3.4 22:10:41 65° ESE 22:11:16 72° ENE 22:16:30 10° N
SL-08 R/B 4.4 22:09:03 43° S 22:11:17 79° E 22:17:37 10° N
Cosmos 1818 3.4 22:10:07 52° S 22:11:22 73° ESE 22:16:50 10° NE
Cosmos 2237 4.4 22:07:07 10° SSW 22:12:47 71° WNW 22:18:30 10° NNE
Cosmos 1975 3.2 22:16:24 63° WNW 22:16:24 63° WNW 22:20:09 10° N
Terra 2.7 22:16:55 37° NE 22:16:55 37° NE 22:20:45 10° N
YAOGAN 11 4.0 22:16:51 81° NNW 22:16:51 81° NNW 22:20:59 10° NNW
Nimbus 7 Rocket 4.3 22:13:21 10° NNE 22:19:12 66° ESE 22:19:44 63° SE
H-2A R/B 4.0 22:23:50 20° NE 22:23:50 20° NE 22:26:06 10° NNE
BREEZE-M DEB 3.5 22:16:05 10° WNW 22:22:33 54° N 22:22:33 54° N
NOSS 3-2 (A) 4.0 22:15:48 10° NNW 22:23:20 76° NE 22:25:38 51° SE
Cosmos 1503 Rocket 4.1 22:18:08 10° NNW 22:23:30 65° ENE 22:23:33 65° ENE
Cosmos 2219 Rocket 2.3 22:24:26 57° ENE 22:24:26 57° ENE 22:29:18 10° NNE
USA 238 DEB 4.0 22:18:25 10° NW 22:25:25 63° WSW 22:27:24 46° S
USA 238 4.0 22:18:31 10° NW 22:25:31 63° WSW 22:27:30 47° S
Cosmos 724 4.2 22:20:28 10° NNW 22:26:21 69° NE 22:26:49 66° E
Meteor 1-12 Rocket 4.4 22:26:33 44° SSW 22:28:20 71° W 22:34:00 10° N
ERS-1 Rocket 4.3 22:26:41 27° SW 22:28:26 34° W 22:33:00 10° NNW
USA 245 4.3 22:28:30 49° WSW 22:28:59 51° WSW 22:33:11 10° NNW
Cosmos 2360 Rocket 4.0 22:34:22 10° WSW 22:39:14 29° NW 22:44:08 10° N
ATLAS 3B R/B 3.3 22:33:37 10° NW 22:39:48 41° WSW 22:41:11 37° SW
COSMOS 2428 3.2 22:37:40 25° SW 22:40:55 60° WNW 22:46:36 10° NNE
Cosmos 1745 Rocket 4.1 22:45:48 53° SW 22:47:09 68° W 22:53:17 10° N
Cosmos 1844 3.7 22:42:10 10° NNW 22:47:46 74° WSW 22:47:46 74° WSW
H-2A R/B 2.6 22:49:01 46° WSW 22:49:06 46° W 22:53:55 10° NNW
NOSS 0 Rocket 4.1 22:51:55 57° ENE 22:51:55 57° ENE 22:57:01 10° NNE
Cosmos 2333 Rocket 2.4 22:55:01 62° NNE 22:55:01 62° NNE 22:59:42 10° NNE
ATLAS CENTAUR R/B 4.0 22:52:48 10° NNE 22:53:18 11° NNE 22:53:18 11° NNE
NOSS 3-2 (C) 3.9 22:54:54 10° NW 23:02:30 85° WSW 23:03:28 72° SSE
FALCON 9 R/B 4.5 23:06:24 48° SE 23:06:29 48° SE 23:37:30 10° E
COSMOS 2455 3.9 23:04:42 10° NNW 23:10:05 33° NE 23:10:05 33° NE
Cosmos 2237 Rocket 3.0 23:12:24 43° NNE 23:12:24 43° NNE 23:16:07 10° NNE
Cosmos 968 Rocket 4.4 23:08:59 10° NNW 23:12:34 43° N 23:12:34 43° N
Cosmos 1980 4.3 23:18:31 51° NNE 23:18:31 51° NNE 23:22:44 10° NNE
Lacrosse 5 4.3 23:19:14 10° WNW 23:22:58 20° NNW 23:26:42 10° NNE
NOSS 3-4 (A) 3.9 23:28:47 53° W 23:29:42 58° NW 23:36:08 10° NNE
CENTAUR R/B 3.2 23:21:53 10° NNW 23:29:42 65° NE 23:30:30 62° E
NOSS 3-4 (C) 3.9 23:28:58 54° W 23:29:49 59° NW 23:36:15 10° NNE
ATLAS CENTAUR R/B 4.2 23:19:24 10° NW 23:31:24 39° NNE 23:33:12 32° NE
Cosmos 2278 Rocket 3.4 23:44:45 10° NW 23:48:29 35° WNW 23:48:29 35° WNW
Terra 4.0 23:55:49 19° WNW 23:55:49 19° WNW 23:57:56 10° NW
